Lapse_Rate
5.8 5.8 5.6 5.5 5.1 5.4 5.4 5.5 5.7 5.8 5.9 5.8 6.1 6.0 6.0 5.9 6.0 6.0 5.9 5.7 5.7 5.8 5.9 6.0 6.0 6.0 5.9 5.5 5.3 5.3 5.3 5.6 5.5 5.1 5.0 5.3 5.3 5.2 5.2 5.2 5.1 5.0 5.0
5.8 5.8 5.7 5.6 5.2 5.4 5.4 5.5 5.6 5.8 5.8 5.7 5.8 5.8 5.9 5.9 5.9 5.9 5.9 5.7 5.7 5.8 6.0 6.0 6.0 6.0 5.8 5.6 5.4 5.3 5.2 5.2 5.2 5.2 5.2 5.2 5.3 5.4 5.5 5.4 5.1 5.1 5.2
5.8 5.8 5.7 5.7 5.3 5.4 5.5 5.5 5.3 5.6 5.7 5.6 5.5 5.6 5.7 5.7 5.9 5.9 5.8 5.8 5.7 5.7 5.8 5.8 5.8 5.8 5.7 5.7 5.6 5.5 5.3 5.2 5.1 5.5 5.5 5.5 5.5 5.4 5.4 5.5 5.5 5.5 5.5
5.8 5.7 5.6 5.5 5.5 5.4 5.5 5.5 5.4 5.4 5.5 5.5 5.5 5.5 5.5 5.7 5.7 5.7 5.7 5.9 5.9 5.9 5.8 5.7 5.8 5.7 5.8 5.9 5.9 5.8 5.6 5.6 5.5 5.6 5.3 5.1 5.6 5.8 5.8 5.7 5.6 5.7 5.7
5.8 5.6 5.6 5.5 5.6 5.5 5.4 5.4 5.5 5.4 5.4 5.5 5.4 5.4 5.4 5.4 5.6 5.7 5.8 5.8 6.0 5.9 6.0 5.9 5.8 5.7 5.7 5.7 5.8 5.8 5.7 5.5 5.5 5.6 4.9 5.7 5.9 5.9 5.8 5.7 5.8 5.8 5.9
4.8 5.5 5.6 5.5 5.4 5.5 5.6 5.4 5.4 5.5 5.5 5.4 5.4 5.5 5.4 5.5 5.4 5.6 5.8 5.9 6.0 5.9 6.0 6.0 5.9 5.8 5.7 5.7 5.7 5.8 5.8 5.7 5.7 4.7 5.3 5.4 5.8 5.8 5.9 5.8 5.8 5.9 6.0
5.0 5.5 5.6 5.5 5.4 5.3 5.4 5.6 5.4 5.4 5.4 5.4 5.3 5.4 5.5 5.6 5.5 5.5 5.7 5.9 5.9 5.9 5.9 5.9 5.8 5.8 5.9 5.8 5.8 5.8 5.8 5.9 6.1 4.8 5.5 5.7 6.0 6.1 6.1 6.1 6.1 6.1 6.2
5.1 5.6 5.5 5.5 5.4 5.4 5.4 5.5 5.5 5.5 5.4 5.4 5.3 5.3 5.4 5.4 5.5 5.5 5.5 5.6 5.6 5.7 5.7 5.7 5.7 5.6 5.6 5.7 5.8 5.8 5.9 6.0 5.9 5.6 5.2 5.6 5.9 6.0 6.1 6.2 6.3 6.4 6.3
4.9 5.3 5.4 5.3 5.5 5.4 5.3 5.3 5.4 5.4 5.3 5.3 5.3 5.3 5.3 5.3 5.4 5.5 5.6 5.6 5.6 5.5 5.6 5.6 5.6 5.5 5.7 5.6 5.6 5.7 5.8 5.8 5.9 5.6 5.7 5.8 5.9 6.0 6.1 6.2 6.3 6.4 6.5
4.9 4.9 4.9 5.3 5.4 5.5 5.4 5.3 5.3 5.3 5.2 5.1 5.2 5.3 5.2 5.2 5.2 5.4 5.5 5.5 5.5 5.5 5.5 5.4 5.4 5.4 5.4 5.5 5.6 5.6 5.7 5.6 5.6 5.4 5.5 5.8 5.8 5.9 6.1 6.2 6.2 6.2 6.2
5.8 5.5 4.7 4.4 4.6 5.4 5.6 5.4 5.3 5.2 5.2 4.9 4.9 5.1 5.0 5.1 5.0 5.2 5.2 5.3 5.4 5.4 5.4 5.4 5.4 5.4 5.3 5.3 5.4 5.4 5.5 5.6 4.9 5.6 5.2 5.6 5.8 6.0 6.0 6.1 6.2 6.2 6.2
5.8 5.6 4.7 5.3 4.4 4.9 5.4 5.3 5.3 5.4 5.0 4.7 4.8 4.8 4.8 4.9 5.1 5.1 5.2 5.3 5.3 5.4 5.4 5.4 5.5 5.4 5.4 5.3 5.1 5.1 5.2 5.4 5.2 5.2 4.9 5.5 5.6 5.8 6.0 6.1 6.1 6.1 6.1
5.1 5.5 5.3 5.3 5.4 4.9 5.0 5.1 4.6 4.9 4.9 4.6 4.8 5.1 4.8 5.0 5.0 5.2 5.2 5.3 5.3 5.3 5.3 5.4 5.3 5.3 5.4 5.2 5.3 5.2 4.8 4.9 4.6 4.6 4.6 5.1 5.3 5.5 5.6 5.7 6.0 6.1 6.1
5.2 5.0 5.0 5.8 5.8 5.5 4.9 5.3 4.5 4.4 4.8 5.0 4.9 5.0 5.1 5.1 5.0 5.1 5.2 5.2 5.2 5.1 5.1 5.2 5.3 5.5 5.4 5.4 5.3 5.2 5.2 4.8 4.7 4.8 5.4 5.0 5.1 5.4 5.5 5.5 5.7 5.8 5.7
5.6 5.3 5.2 5.5 5.9 5.7 5.5 5.3 5.1 5.0 5.2 5.3 5.3 5.1 5.0 5.2 5.3 5.1 5.2 5.4 5.3 5.3 5.3 5.2 5.4 5.6 5.5 5.5 5.6 5.5 5.5 5.4 5.0 5.1 4.8 5.6 5.4 5.5 5.6 5.6 5.6 5.6 5.7
5.6 5.4 5.2 6.0 5.9 5.9 5.6 5.5 5.7 5.6 5.4 5.5 5.4 5.4 5.2 5.2 5.3 5.1 5.1 5.4 5.5 5.6 5.6 5.4 5.6 5.6 5.6 5.6 5.6 5.6 5.6 5.6 5.4 5.4 5.5 5.7 5.6 5.5 5.6 5.7 5.6 5.6 5.7
5.6 5.8 5.5 6.0 6.0 5.8 5.6 5.6 5.7 5.1 5.4 5.5 5.6 5.3 5.0 5.3 5.4 5.4 5.2 5.4 5.4 5.7 5.8 5.8 5.7 5.9 5.8 5.8 5.7 6.0 5.5 5.5 5.3 5.5 5.7 5.8 5.8 5.8 5.8 5.7 5.6 5.7 5.7
6.0 6.0 5.6 5.5 5.7 5.9 6.0 5.8 5.4 5.6 6.1 5.8 5.6 5.5 5.3 5.3 5.4 5.5 5.7 5.4 5.5 6.0 6.0 6.0 5.9 5.8 5.9 5.9 5.7 5.7 5.8 5.1 5.4 5.9 6.3 6.2 5.9 6.0 6.2 6.0 5.9 6.0 6.0
6.1 5.9 5.8 5.8 6.1 5.8 6.2 5.9 5.8 5.4 5.6 5.8 5.9 5.9 5.8 5.8 6.1 6.2 6.2 5.7 5.6 5.7 5.8 6.0 6.0 6.0 5.8 5.9 5.8 5.8 5.8 6.0 5.7 5.5 5.5 5.9 5.3 6.0 5.8 6.3 6.1 6.2 6.0
6.2 6.1 6.0 6.1 6.3 6.3 6.3 6.2 6.1 5.6 5.2 5.7 5.6 5.0 5.5 5.9 5.9 6.3 5.9 5.8 5.9 6.0 6.1 5.9 6.0 6.1 6.0 5.9 6.2 6.0 5.9 6.2 6.4 5.7 6.3 6.3 6.0 6.1 6.1 6.1 6.4 6.1 6.0
6.2 6.3 6.3 6.5 6.7 6.6 6.5 6.4 6.1 5.9 5.9 5.5 5.4 5.5 6.0 6.1 5.9 5.7 5.9 5.6 6.0 5.8 6.2 6.2 6.3 6.3 6.1 6.1 6.0 6.2 6.2 6.2 6.2 6.0 5.7 6.3 6.4 5.9 6.3 6.3 6.4 6.2 6.4
6.3 6.4 6.3 6.5 6.6 6.6 6.4 6.4 6.4 6.3 5.9 5.7 5.5 5.7 5.7 5.6 5.7 5.6 5.8 5.6 5.8 5.8 5.9 6.2 6.2 6.2 6.4 6.1 6.1 6.1 5.6 5.7 5.6 6.1 5.7 5.6 6.0 6.1 6.0 6.1 6.2 6.1 6.2
6.4 6.4 6.5 6.6 6.8 6.8 6.6 6.5 6.6 6.5 6.3 6.1 5.9 5.9 6.0 5.9 5.9 5.8 5.8 5.9 5.8 5.8 5.8 5.9 5.9 5.9 5.8 5.2 5.8 5.9 5.6 5.5 5.5 5.7 5.6 6.0 5.9 6.0 6.1 5.8 5.7 6.0 6.2
6.6 6.6 6.7 6.5 6.8 6.8 6.7 6.9 6.9 6.3 6.1 5.9 6.0 5.5 5.6 5.9 5.9 5.9 5.9 6.0 6.0 5.9 5.9 5.7 5.8 5.8 5.6 5.6 5.2 5.4 5.5 5.3 5.4 5.5 5.5 5.2 5.6 5.9 5.9 5.8 5.3 5.8 5.9
6.7 7.2 6.9 6.9 7.4 7.3 7.1 7.0 6.9 6.6 6.2 6.2 6.4 6.4 5.8 5.7 5.4 5.5 5.8 6.2 6.1 6.1 6.3 6.1 5.8 5.9 5.8 5.8 5.8 5.6 5.8 5.6 5.6 5.7 5.5 5.2 5.3 5.5 5.4 5.9 5.6 5.6 5.2
7.3 7.3 7.2 7.1 7.5 7.4 7.2 7.2 6.8 6.5 6.2 6.5 6.5 6.3 6.2 5.9 5.6 6.0 5.7 6.2 6.2 6.3 6.3 6.3 6.4 6.3 6.2 6.2 6.2 6.0 5.9 5.9 5.6 5.8 5.7 5.4 5.2 5.5 5.3 5.5 4.9 5.1 5.2
Wind_Speed
16 18 14 15 15 14 14 14 14 13 13 13 12 11 10 9 9 11 12 13 16 16 18 17 15 16 18 18 17 17 17 18 19 18 19 17 15 14 12 10 19 17 15
19 20 15 16 14 13 14 13 13 14 14 12 12 10 8 8 9 8 9 10 12 14 14 15 14 15 16 16 15 15 15 15 17 20 21 18 15 14 16 14 21 16 16
19 21 18 17 14 12 12 13 13 14 13 12 12 11 10 8 8 8 8 9 11 13 13 13 13 15 14 14 14 13 12 9 12 17 24 20 17 14 16 18 16 15 15
20 21 19 16 14 11 11 12 12 13 12 11 11 10 8 8 9 8 10 10 11 11 11 13 13 14 14 13 12 11 9 4 4 6 11 19 18 14 14 15 15 15 15
17 21 21 15 14 12 10 11 11 11 11 10 10 9 8 8 7 8 10 9 9 11 10 10 12 12 12 12 11 11 7 4 8 8 12 14 17 12 12 14 14 11 14
17 24 20 15 13 12 10 10 10 9 9 9 9 11 9 7 7 7 8 8 9 9 10 10 10 11 11 11 10 9 6 6 9 5 13 13 18 13 10 12 15 14 14
18 21 19 14 12 10 10 9 9 8 8 8 8 9 10 8 7 6 8 6 7 7 9 10 9 10 11 11 9 7 4 6 12 4 8 15 15 11 9 11 13 11 11
17 19 17 13 11 10 9 8 7 7 6 6 7 7 8 9 7 5 6 7 5 5 7 9 8 10 8 8 7 5 3 8 4 1 3 18 16 10 9 10 11 9 10
15 17 15 15 11 9 8 7 6 5 5 4 4 4 4 5 6 5 4 5 6 5 4 7 7 8 8 7 6 4 3 9 10 8 10 13 16 11 8 7 8 9 9
10 11 14 15 14 15 16 13 7 4 3 2 2 1 2 3 6 7 5 4 5 4 6 5 5 7 7 7 6 5 4 11 11 9 7 16 18 10 9 9 8 8 8
8 6 11 14 11 3 15 13 10 7 6 3 1 2 8 8 12 7 9 6 3 3 5 5 5 5 6 8 10 9 8 13 11 7 5 22 17 12 10 10 11 10 8
10 9 5 7 10 9 5 11 5 11 11 6 3 2 6 2 5 1 4 9 7 6 8 10 9 9 10 15 16 15 13 13 11 11 14 20 14 12 12 11 12 12 11
11 11 7 2 4 8 7 2 12 13 11 8 4 6 5 5 6 7 8 7 10 12 14 15 14 13 14 9 11 14 12 13 8 10 13 19 15 12 14 14 13 14 14
11 11 10 11 6 6 2 6 5 9 8 3 0 4 6 3 3 6 3 2 4 2 3 11 3 5 7 8 10 10 9 8 9 8 17 22 19 15 14 16 16 15 15
11 10 6 10 6 5 3 2 3 0 7 9 6 2 8 8 3 4 5 4 2 2 3 2 6 3 5 9 11 13 11 11 8 9 7 14 16 16 14 15 17 17 15
8 8 11 7 9 8 6 3 3 4 12 9 4 4 5 4 4 3 3 5 4 7 7 2 4 3 5 8 7 11 9 14 12 4 8 14 19 19 17 16 17 17 17
8 9 9 9 10 8 7 6 8 6 7 10 6 7 4 7 7 6 3 5 3 3 3 5 5 6 5 4 7 8 10 11 14 10 4 9 17 20 23 23 22 20 19
13 6 6 9 11 11 8 7 5 5 14 12 12 11 12 12 12 10 4 6 2 1 5 5 4 1 4 4 5 5 4 9 11 11 15 13 11 13 23 24 25 23 22
12 8 8 8 8 10 7 6 7 8 7 6 15 15 18 16 16 9 8 9 9 7 4 3 5 0 2 4 3 6 6 4 5 8 8 12 14 13 14 25 27 25 23
12 10 8 9 8 7 6 6 5 3 5 7 8 4 15 10 13 8 9 5 6 4 3 3 3 4 4 4 4 8 7 6 8 9 5 8 11 10 15 15 19 20 26
15 10 11 10 10 8 7 7 5 5 3 3 4 8 5 5 6 3 8 6 6 4 7 5 7 6 6 6 2 6 7 8 7 6 6 8 7 11 11 14 9 15 18
12 12 11 10 10 9 7 6 4 6 5 3 3 6 5 6 7 9 7 6 5 5 5 5 5 6 7 5 4 4 6 3 2 2 5 8 10 6 7 11 15 17 12
10 11 11 10 9 9 9 5 5 6 4 5 6 7 9 8 7 8 8 8 4 5 7 5 7 8 7 6 5 4 5 1 5 8 6 8 6 9 9 8 10 11 14
9 12 9 10 9 9 9 8 7 4 4 1 5 4 0 4 7 9 9 9 7 7 6 7 8 8 4 8 7 6 2 7 7 5 5 6 2 8 7 7 8 10 13
8 10 10 8 9 8 9 9 6 8 6 5 5 6 6 7 10 11 11 9 7 8 9 8 8 5 4 7 9 3 7 4 5 8 9 5 5 5 12 7 6 5 15
7 7 8 8 8 8 7 7 6 3 4 5 3 4 8 5 5 7 3 4 8 9 8 6 8 9 8 8 6 5 5 5 6 6 5 8 12 5 8 10 7 6 7
Wind_Direction
129 125 128 117 106 103 97 93 94 95 104 108 110 106 94 80 78 75 82 87 89 91 91 103 99 91 93 100 97 95 94 96 102 109 107 102 107 103 109 127 137 100 101
123 131 133 119 112 108 105 103 97 93 92 100 106 105 103 96 79 77 89 95 91 96 99 102 101 102 102 99 99 97 100 110 118 122 116 105 96 86 87 93 79 102 99
131 127 135 121 118 114 106 93 101 100 95 91 92 92 85 75 80 80 103 96 103 99 105 105 106 110 110 108 105 102 105 128 140 151 146 102 93 97 92 90 94 99 93
128 143 135 120 122 118 108 100 93 89 87 85 86 81 83 84 79 82 107 108 102 107 104 111 111 111 110 109 111 110 117 134 185 176 242 103 99 101 97 99 103 106 104
141 132 122 135 129 124 114 107 100 96 92 86 79 71 77 76 82 86 89 100 93 113 107 103 115 116 114 114 109 110 120 199 229 259 142 110 105 106 115 120 124 116 99
141 117 133 138 135 130 123 115 109 102 93 86 77 70 74 73 78 87 83 96 108 117 118 112 119 126 121 118 122 124 151 241 288 118 83 83 90 118 116 104 100 103 107
126 122 139 143 140 138 133 130 123 114 100 85 75 69 68 73 84 81 81 97 99 107 130 124 125 124 127 133 125 126 164 250 276 82 131 119 109 123 125 116 115 117 117
120 137 135 145 146 147 147 144 134 121 110 96 80 71 68 76 83 81 92 97 99 93 102 130 140 134 135 135 130 129 221 283 266 83 61 87 122 133 129 128 127 130 126
120 132 149 156 151 160 166 158 151 144 124 102 93 82 78 93 100 100 97 102 109 113 117 123 132 146 151 152 161 163 247 283 283 120 181 134 134 147 149 148 148 146 147
121 130 149 152 161 184 163 170 166 168 141 145 115 67 263 213 161 154 146 126 117 123 124 129 148 153 169 174 189 205 243 277 263 158 232 117 138 157 166 168 166 169 167
144 179 166 151 156 173 155 153 166 183 188 163 237 211 285 227 200 156 141 134 153 169 165 161 168 178 198 207 207 210 233 245 218 223 94 136 143 171 186 194 181 187 193
168 163 231 144 142 166 194 149 159 187 152 160 218 239 257 30 15 282 142 161 181 195 196 191 192 203 220 226 203 208 225 247 276 226 131 135 144 184 197 201 200 197 201
173 158 194 264 141 168 106 302 179 121 143 164 200 266 272 264 191 222 192 204 185 194 218 196 198 217 222 297 163 217 224 237 231 233 125 140 154 183 208 213 210 207 209
170 162 188 159 172 280 156 192 163 143 141 117 145 276 275 340 44 309 103 200 236 49 292 211 223 300 279 282 278 259 279 251 261 261 145 162 167 184 205 220 220 222 221
166 164 155 154 180 196 231 256 306 349 86 137 193 350 348 33 342 320 20 281 288 202 192 239 236 222 255 259 251 259 260 264 263 271 118 185 178 188 205 219 224 226 232
161 158 156 178 166 199 207 236 277 205 140 129 138 41 17 347 288 281 285 290 201 197 211 296 296 253 243 249 249 270 253 271 247 248 278 178 190 188 199 215 224 225 230
180 173 153 180 175 193 190 191 216 241 91 142 165 170 127 271 266 250 248 283 350 49 308 244 221 222 245 252 256 224 223 246 245 192 253 253 195 193 199 203 215 225 230
121 153 189 189 179 178 190 179 245 129 205 151 168 192 207 227 238 205 220 250 309 275 278 289 185 202 259 218 275 225 277 284 202 212 200 226 232 199 206 208 210 216 222
130 160 194 189 193 161 176 204 227 195 209 184 186 189 194 216 222 184 229 209 205 230 210 306 340 28 308 260 222 251 246 263 301 268 241 223 228 228 193 201 207 215 215
147 168 206 184 184 184 167 215 252 185 232 179 221 240 179 210 190 209 207 229 204 222 261 194 186 291 231 301 302 307 276 221 244 229 220 237 258 216 236 182 202 213 215
154 171 193 198 174 191 195 193 214 251 287 205 207 173 155 235 228 240 265 184 212 306 179 242 257 227 281 196 211 262 255 232 234 234 222 226 232 233 228 231 215 214 212
172 176 195 194 179 205 195 220 226 224 212 188 207 199 233 189 230 228 252 275 195 263 230 236 269 304 278 247 267 260 300 199 199 292 199 210 224 229 233 208 216 223 249
175 177 184 192 189 209 244 212 197 279 262 249 228 223 202 223 241 240 272 274 288 248 265 249 222 242 279 299 247 288 287 268 296 221 207 235 238 227 215 214 224 211 232
183 172 181 193 205 199 206 235 227 264 259 351 278 207 26 287 272 274 261 242 266 272 281 250 234 248 324 296 318 288 310 343 294 311 255 252 52 325 228 225 247 195 225
177 151 174 191 201 227 207 258 225 223 239 242 302 12 293 272 258 258 264 270 250 254 243 247 284 291 259 259 270 349 305 286 269 277 283 292 93 184 284 238 234 220 204
162 178 182 165 200 209 216 218 247 283 291 298 263 307 267 244 202 198 296 285 278 279 302 294 281 260 248 259 281 286 254 256 277 255 278 283 298 203 196 217 237 195 217